This demonstration page uses our WeatherBlox Daily Observations layout. Learn more.

Left ArrowRight Arrow

34.16533, -84.80231

Hourly Observations for July 16, 2017

Temp ( °F °C ) Dew Point ( °F °C ) Humidity (%) Winds ( mph kmh ) Pressure ( in mb ) Visibility ( mi km ) Precip ( " mm )
12:13 am 00:13 Cloudy with Mist and Fog 71 21.7 71 21.7 100 100 Calm 30.03 1017 2 3 0.00 0.00
12:24 am 00:24 Mostly Cloudy with Fog 71 21.7 71 21.7 100 100 Calm 30.03 1017 1 1 0.00 0.00
12:38 am 00:38 Cloudy with Mist and Fog 71 21.7 71 21.7 100 100 Calm 30.03 1017 3 4 0.00 0.00
12:45 am 00:45 Cloudy 71 21.7 71 21.7 100 100 Calm 30.03 1017 7 11 0.00 0.00
12:53 am 00:53 Cloudy with Mist and Fog 71 21.7 71 21.7 100 100 Calm 30.01 1016 4 6 0.00 0.00
12:59 am 00:59 Cloudy with Mist and Fog 71 21.7 71 21.7 100 100 Calm 30.03 1017 2 3 0.00 0.00
1:11 am 01:11 Mostly Cloudy with Mist and Fog 71 21.7 71 21.7 100 100 Calm 30.03 1017 1 1 0.00 0.00
1:53 am 01:53 Mostly Cloudy with Mist and Fog 71 21.7 71 21.7 100 100 Calm 30.00 1016 1 1 0.00 0.00
2:04 am 02:04 Cloudy with Mist and Fog 71 21.7 71 21.7 100 100 Calm 30.03 1017 2 3 0.00 0.00
2:10 am 02:10 Cloudy with Mist and Fog 71 21.7 71 21.7 100 100 Calm 30.03 1017 3 5 0.00 0.00
2:15 am 02:15 Cloudy with Mist and Fog 71 21.7 71 21.7 100 100 Calm 30.03 1017 2 3 0.00 0.00
2:33 am 02:33 Mostly Cloudy with Mist and Fog 70 21.1 70 21.1 100 100 Calm 30.03 1017 1 1 0.00 0.00
2:45 am 02:45 Cloudy with Mist and Fog 70 21.1 70 21.1 100 100 Calm 30.03 1017 2 3 0.00 0.00
2:53 am 02:53 Cloudy with Mist and Fog 70 21.1 70 21.1 100 100 Calm 30.00 1016 4 6 0.00 0.00
3:53 am 03:53 Cloudy with Mist and Fog 70 21.1 70 21.1 100 100 Calm 29.99 1016 5 8 0.00 0.00
4:01 am 04:01 Cloudy with Mist and Fog 70 21.1 70 21.1 100 100 Calm 30.03 1017 2 3 0.00 0.00
4:20 am 04:20 Mostly Cloudy with Mist and Fog 70 21.1 70 21.1 100 100 Calm 30.03 1017 1 1 0.00 0.00
4:31 am 04:31 Cloudy with Mist and Fog 70 21.1 70 21.1 100 100 Calm 30.03 1017 2 3 0.00 0.00
4:51 am 04:51 Cloudy 70 21 70 21 100 100 Calm 30.03 1017 7 11 0.00 0.00
4:53 am 04:53 Cloudy with Mist and Fog 70 21.1 70 21.1 100 100 Calm 29.99 1016 6 10 0.00 0.00
5:36 am 05:36 Cloudy with Mist and Fog 70 21.1 70 21.1 100 100 Calm 30.03 1017 2 3 0.00 0.00
5:51 am 05:51 Cloudy with Mist and Fog 70 21 70 21 100 100 Calm 30.03 1017 3 5 0.00 0.00
5:53 am 05:53 Cloudy with Mist and Fog 70 21.1 70 21.1 100 100 Calm 30.01 1016 4 6 0.00 0.00
6:53 am 06:53 Cloudy with Mist and Fog 71 21.7 71 21.7 100 100 Calm 30.01 1016 6 10 0.00 0.00
7:53 am 07:53 Cloudy with Mist and Fog 71 21.7 71 21.7 100 100 Calm 30.02 1017 6 10 0.00 0.00
8:53 am 08:53 Cloudy with Mist and Fog 71 21.7 71 21.7 100 100 Calm 30.02 1017 6 10 0.00 0.00
9:53 am 09:53 Cloudy 73 22.8 73 22.8 100 100 S 3 6 30.03 1017 10 16 0.00 0.00
10:11 am 10:11 Cloudy 73 22.8 73 22.8 100 100 Calm 30.03 1017 10 16 0.00 0.00
10:53 am 10:53 Sunny 76 24.4 73 22.8 91 91 VRB 3 6 30.03 1017 10 16 0.00 0.00
11:53 am 11:53 Sunny 81 27.2 73 22.8 77 77 S 3 6 30.00 1016 10 16 0.00 0.00
12:53 pm 12:53 Mostly Sunny 82 27.8 71 21.7 69 69 Calm 29.98 1015 10 16 0.00 0.00
1:53 pm 13:53 Sunny 83 28.3 70 21.1 65 65 Calm 29.97 1015 10 16 0.00 0.00
2:53 pm 14:53 Sunny 85 29.4 73 22.8 68 68 VRB 3 6 29.94 1014 10 16 0.00 0.00
3:53 pm 15:53 Cloudy 84 28.9 73 22.8 70 70 Calm 29.92 1013 10 16 0.00 0.00
4:53 pm 16:53 Mostly Sunny 88 31.1 72 22.2 59 59 Calm 29.91 1013 10 16 0.00 0.00
5:53 pm 17:53 Mostly Sunny 85 29.4 72 22.2 65 65 SW 3 6 29.89 1012 10 16 0.00 0.00
6:53 pm 18:53 Sunny 84 28.9 75 23.9 74 74 S 3 6 29.90 1012 10 16 0.00 0.00
7:53 pm 19:53 Sunny 81 27.2 78 25.6 91 91 Calm 29.91 1013 10 16 0.00 0.00
8:53 pm 20:53 Mostly Cloudy 80 26.7 77 25 90 90 Calm 29.92 1013 10 16 0.00 0.00
9:53 pm 21:53 Partly Cloudy 76 24.4 76 24.4 100 100 Calm 29.93 1014 10 16 0.00 0.00
10:53 pm 22:53 Clear 74 23.3 74 23.3 100 100 Calm 29.94 1014 10 16 0.00 0.00
11:53 pm 23:53 Clear 74 23.3 74 23.3 100 100 Calm 29.95 1014 10 16 0.00 0.00

Powered by AerisWeather